Starlink 2559

operational
NORAD ID: 48298 Int'l Des: 2021-036 Owner: SPXS Country: US Constellation: starlink
LEOCIRCULAR

About Starlink 2559

Description loading...

Live Position

Loading 3D Globe...

Upcoming Passes

Altitude History

Altitude vs Time

uPlot chart will show altitude changes over time

Two-Line Element Set

1 48298U 21036Y 26102.80051343 .00001373 00000-0 55974-4 0 9996
2 48298 53.1621 276.9430 0000772 107.4731 252.6355 15.31710018273637
Epoch: Apr 12, 2026 • Age: 13 hours

Current Status

Altitude 471.7 km
Velocity 7.63 km/s
Sub-Earth Point -1.71°S, 126.11°E
Launch Date Apr 29, 2021
Age 4.9 years
Type internet

Technical Details

Classification Payload
Mass 260.00 kg
Dry Mass 248.00 kg
Total Mass 260.00 kg
Length 0.20 m
Diameter 2.80 m
Span 9.00 m
Shape Box + pan
Manufacturer SPXS
Bus Type Starlink
Phase Status In Orbit
Owner/State SPXS/US

Large Constellations

Loading constellations...